Skip Page Navigation
NASA JPL Caltech
NASA Logo - Jet Propulsion Laboratory + View the NASA Portal
+ Near-Earth Object (NEO) Program
Search JPL
JPL Home Earth Solar System Stars & Galaxies Technology
JPL Solar System Dynamics
BODIES ORBITS EPHEMERIDES TOOLS PHYSICAL DATA DISCOVERY FAQ SITE MAP
JPL Small-Body Database Browser
Search: [ help ]  
27087 Tillmannmohr (1998 UA15)
Classification: Main-belt Asteroid          SPK-ID: 2027087
Ephemeris | Orbit Diagram | Orbital Elements | Physical Parameters | Discovery Circumstances ]

[ show orbit diagram ]
Orbital Elements at Epoch 2456800.5 (2014-May-23.0) TDB
Reference: JPL 7 (heliocentric ecliptic J2000)
 Element Value Uncertainty (1-sigma)   Units 
e .06814083734113298 5.5561e-08  
a 2.385570978394344 1.8581e-08 AU
q 2.223016174389847 1.3678e-07 AU
i 6.132854271845662 6.1411e-06 deg
node 52.46599175130935 6.2298e-05 deg
peri 70.76180372827969 8.3861e-05 deg
M 2.53057529246634 5.3444e-05 deg
tp 2456791.039726250279
(2014-May-13.53972625)
0.0001998 JED
period 1345.819885319544
3.68
1.5724e-05
4.305e-08
d
yr
n .2674949329601589 3.1253e-09 deg/d
Q 2.54812578239884 1.9847e-08 AU
  Orbit Determination Parameters
   # obs. used (total)      730  
   data-arc span      6626 days (18.14 yr)  
   first obs. used      1996-01-27  
   last obs. used      2014-03-19  
   planetary ephem.      DE431  
   SB-pert. ephem.      SB431-BIG16  
   condition code      0  
   fit RMS      .53036  
   data source      ORB  
   producer      Otto Matic  
   solution date      2014-Apr-17 14:25:01  

Additional Information
 Earth MOID = 1.2476 AU 
 T_jup = 3.525 
[ show covariance matrix ]

Ephemeris | Orbit Diagram | Orbital Elements | Physical Parameters | Discovery Circumstances ]

Physical Parameter Table
Parameter Symbol Value Units Sigma Reference Notes
absolute magnitude H 14.9 mag n/a MPO244417  

27087 Tillmannmohr           Discovered 1998 Oct. 24 by J. Ticha and M. Tichy at Klet.
Tillmann Mohr (b. 1940) was president of the Deutscher Wetterdienst (1992-1995) and director-general of EUMETSAT since 1995. He played an important role in the ESA project which led to the Meteosat system and has been associated with EUMETSAT from when it was first conceived by European meteorologists.
NOTE: some special characters may not display properly (any characters within {} are an attempt to place the proper accent above a character)
Reference: 20040306/MPCPages.arcLast Updated: 2004-03-08

Alternate Designations
 1998 UA15 = 2000 AH246 
Ephemeris | Orbit Diagram | Orbital Elements | Physical Parameters | Discovery Circumstances ]
ABOUT SSD CREDITS/AWARDS PRIVACY/COPYRIGHT GLOSSARY LINKS
FirstGov 2014-Apr-25 02:24 UT
(server date/time)  
NASA Home Page
Site Manager:   Donald K. Yeomans
Webmaster  Alan B. Chamberlin